Location: *
(35.2348°S, 91.3916°E)
Time: 09:30:27
(UTC+00:00)

SL-08 R/B - Pass Details

Date: 23 October 2019
Orbit: 943 x 1009 km, 82.9° (Epoch: 22 November)

Event Time Altitude Azimuth Distance (km) Brightness Sun altitude
Exits shadow 14:16:39 17° 352° (N) 2,197 6.1 -23.2°
Maximum altitude 14:21:29 83° 265° (W) 986 4.5 -24.0°
Drops below altitude 10° 14:27:50 10° 175° (S) 2,760 7.2 -25.1°
Sets 14:30:24 0° 174° (S) 3,724 8.0 -25.5°
